LUCH 5A

Last updated on Sun Oct 26 2025 00:02:42 GMT+0000 (Coordinated Universal Time)

1 37951U 11074B 25298.22278414 -.00000036 00000+0 00000+0 0 9992 2 37951 8.1525 77.3014 0005067 147.1467 56.4838 1.00271876 50694
UTC large
Height (km)
Speed (km/s)
/
Latitude / Longitude
Inclination (degrees)
Orbital Period (minutes)
Azimuth
Elevation
Range (km)
Doppler Factor

Next 0 passes for location: London (51.5072 / 0.1276)

Sorry there are no passes over London.